Orbital Elements at Epoch 2459000.5 (2020-May-31.0) TDB
Reference: JPL 14 (heliocentric ecliptic J2000)
Element | Value | Uncertainty (1-sigma) | Units |
e | .09835937966752815 | 5.8808e-08 | |
a | 2.203374003767453 | 1.3147e-08 | au |
q | 1.986651503581328 | 1.3063e-07 | au |
i | 4.904473628640452 | 7.5096e-06 | deg |
node | 98.90144092326578 | 5.4535e-05 | deg |
peri | 313.2190581156503 | 6.3133e-05 | deg |
M | 66.22423541150194 | 2.975e-05 | deg |
tp | 2458780.741738512826 (2019-Oct-24.24173851) | 9.8983e-05 | TDB |
period | 1194.62268826198 3.27 | 1.0692e-05 2.927e-08 | d yr |
n | .3013503791090331 | 2.6972e-09 | deg/d |
Q | 2.420096503953577 | 1.444e-08 | au |
|
| | Orbit Determination Parameters
Additional Information
|